Weather reports worldwide

Advertisment
Almeria, Spain (8487): temperature & dewpoint: 07.07.2020 07:00:00 - 13.07.2020 07:00:00 (CEST)Almeria, Spain (8487): wind speed: 07.07.2020 07:00:00 - 13.07.2020 07:00:00 (CEST)Almeria, Spain (8487): wind direction: 07.07.2020 07:00:00 - 13.07.2020 07:00:00 (CEST)Almeria, Spain (8487): reduced air pressure: 07.07.2020 07:00:00 - 13.07.2020 07:00:00 (CEST)Almeria, Spain (8487): visibility: 07.07.2020 07:00:00 - 13.07.2020 07:00:00 (CEST)
Date & Time tt [°C] td [°C] ff [km/h] ff [kn] dd ppp [hPa] vv [km]
13.07.2020 07:00:00 26,1 13,6 11 6 N 1015,9 -
13.07.2020 06:00:00 27,1 13,4 11 6 N 1015,5 -
13.07.2020 05:00:00 27,0 14,4 13 7 NW 1015,4 50
13.07.2020 04:00:00 26,8 16,4 13 7 NW 1015,6 -
13.07.2020 03:00:00 26,9 16,7 11 6 N 1016,4 -
13.07.2020 02:00:00 27,2 17,1 13 7 NNW 1017,0 -
13.07.2020 01:00:00 28,5 15,1 18 10 NNE 1017,3 -
13.07.2020 00:00:00 28,2 14,1 28 15 ENE 1017,0 -
12.07.2020 23:00:00 27,7 15,1 - - - 1016,3 -
12.07.2020 22:00:00 27,6 19,7 39 21 ENE 1015,1 -
12.07.2020 21:00:00 29,3 19,6 41 22 ENE 1013,8 -
12.07.2020 20:00:00 31,4 17,4 39 21 E 1013,0 50
12.07.2020 19:00:00 32,3 20,1 39 21 ENE 1012,6 -
12.07.2020 18:00:00 34,9 18,0 29 16 E 1013,1 -
12.07.2020 17:00:00 34,6 19,0 31 17 E 1013,2 50
12.07.2020 16:00:00 34,5 18,9 35 19 E 1014,0 -
12.07.2020 15:00:00 34,0 18,1 35 19 E 1014,3 -
12.07.2020 14:00:00 32,6 18,0 34 18 E 1015,3 50
12.07.2020 13:00:00 31,9 17,4 34 18 ENE 1016,2 -
12.07.2020 12:00:00 30,9 18,3 29 16 E 1017,3 -
12.07.2020 11:00:00 31,0 14,7 28 15 ENE 1016,7 50
12.07.2020 10:00:00 30,9 14,2 28 15 ENE 1015,7 -
12.07.2020 09:00:00 29,5 14,1 26 14 NE 1014,8 -
12.07.2020 08:00:00 29,2 12,6 18 10 NNE 1014,8 50
12.07.2020 07:00:00 28,2 13,5 13 7 E 1015,1 -
12.07.2020 06:00:00 27,8 15,1 26 14 NW 1014,1 -
12.07.2020 05:00:00 28,8 14,9 16 9 N 1015,9 50
12.07.2020 04:00:00 29,4 14,1 16 9 WNW 1015,9 -
12.07.2020 03:00:00 28,5 17,1 16 9 N 1014,9 -
12.07.2020 02:00:00 29,1 14,1 8 4 N 1016,6 -
12.07.2020 01:00:00 28,7 15,1 29 16 ENE 1015,9 -
12.07.2020 00:00:00 28,1 17,1 29 16 ENE 1015,3 -
11.07.2020 23:00:00 28,0 17,5 29 16 ENE 1014,8 -
11.07.2020 22:00:00 28,5 17,7 37 20 ENE 1013,6 -
11.07.2020 21:00:00 28,6 19,2 31 17 ENE 1013,2 -
11.07.2020 20:00:00 30,8 18,2 42 23 E 1012,7 45
11.07.2020 19:00:00 32,5 18,0 41 22 E 1012,7 -
11.07.2020 18:00:00 33,4 18,3 44 24 E 1013,1 -
11.07.2020 17:00:00 35,0 14,3 44 24 E 1013,7 45
11.07.2020 16:00:00 34,7 13,0 42 23 E 1014,1 -
11.07.2020 15:00:00 34,6 14,9 44 24 E 1014,3 -
11.07.2020 14:00:00 34,3 17,1 41 22 E 1014,7 45
11.07.2020 13:00:00 32,7 18,0 44 24 E 1015,0 -
11.07.2020 12:00:00 33,1 17,6 37 20 E 1014,7 -
11.07.2020 11:00:00 33,0 14,3 28 15 E 1014,7 45
11.07.2020 10:00:00 28,7 20,3 9 5 SW 1014,8 -
11.07.2020 09:00:00 26,8 20,3 0 0 N 1014,6 -
11.07.2020 08:00:00 24,5 21,2 8 4 NNE 1014,2 40
11.07.2020 07:00:00 23,3 21,2 8 4 NE 1013,6 -
11.07.2020 06:00:00 23,5 21,0 11 6 NE 1013,2 -
11.07.2020 05:00:00 23,8 20,9 5 3 NE 1013,1 30
11.07.2020 04:00:00 24,6 21,5 8 4 N 1013,2 -
11.07.2020 03:00:00 25,0 22,3 9 5 ENE 1013,4 -
11.07.2020 02:00:00 25,2 22,1 4 2 E 1013,9 -
11.07.2020 01:00:00 24,9 22,0 4 2 WNW 1014,0 -
11.07.2020 00:00:00 25,2 21,7 4 2 SSW 1013,9 -
10.07.2020 23:00:00 25,5 21,8 8 4 SW 1013,5 -
10.07.2020 22:00:00 25,7 21,1 4 2 WSW 1012,9 -
10.07.2020 21:00:00 26,8 20,2 8 4 SSW 1012,5 -
10.07.2020 20:00:00 27,6 20,2 9 5 SSW 1012,2 50
10.07.2020 19:00:00 28,2 20,2 11 6 SSW 1012,2 -
10.07.2020 18:00:00 28,4 20,1 13 7 SSW 1012,3 -
10.07.2020 17:00:00 29,1 19,9 15 8 SSW 1012,6 50
10.07.2020 16:00:00 28,8 20,8 16 9 SW 1013,1 -
10.07.2020 15:00:00 29,1 19,4 15 8 SSW 1013,6 -
10.07.2020 14:00:00 28,9 19,9 15 8 SSW 1014,0 50
10.07.2020 13:00:00 28,1 20,1 15 8 SW 1014,4 -
10.07.2020 12:00:00 27,1 21,4 15 8 SSW 1014,7 -
10.07.2020 11:00:00 26,6 21,5 16 9 SSW 1014,3 50
10.07.2020 10:00:00 26,8 20,3 11 6 SSW 1014,2 -
10.07.2020 09:00:00 26,9 18,9 4 2 NNW 1014,2 -
10.07.2020 08:00:00 24,6 18,8 8 4 NNE 1014,1 50
10.07.2020 07:00:00 22,8 18,3 8 4 NE 1014,0 -
10.07.2020 06:00:00 22,7 18,6 8 4 ENE 1013,7 -
10.07.2020 05:00:00 23,8 20,9 5 3 NNW 1013,4 40
10.07.2020 04:00:00 24,5 20,6 11 6 S 1013,9 -
10.07.2020 03:00:00 24,6 19,2 13 7 NW 1014,1 -
10.07.2020 02:00:00 24,5 19,8 4 2 WNW 1014,9 -
10.07.2020 01:00:00 24,3 19,9 5 3 W 1015,4 -
10.07.2020 00:00:00 24,7 21,2 9 5 WSW 1015,5 -
09.07.2020 23:00:00 24,5 21,2 9 5 S 1014,9 -
09.07.2020 22:00:00 24,8 21,3 15 8 SSE 1013,8 -
09.07.2020 21:00:00 26,1 21,1 9 5 S 1013,2 -
09.07.2020 20:00:00 27,4 20,8 11 6 SSW 1013,0 40
09.07.2020 19:00:00 27,8 20,6 16 9 SW 1013,3 -
09.07.2020 18:00:00 27,9 21,1 21 11 SW 1014,0 -
09.07.2020 17:00:00 28,2 21,2 18 10 SW 1014,6 35
09.07.2020 16:00:00 28,3 21,2 21 11 SSW 1014,9 -
09.07.2020 15:00:00 28,5 21,3 18 10 S 1015,1 -
09.07.2020 14:00:00 29,0 21,2 16 9 SSW 1015,2 40
09.07.2020 13:00:00 28,1 21,4 18 10 SSW 1015,0 -
09.07.2020 12:00:00 27,7 21,7 13 7 SSW 1015,0 -
09.07.2020 11:00:00 27,3 21,4 9 5 SSE 1015,2 35
09.07.2020 10:00:00 26,1 22,0 9 5 SSW 1014,9 -
09.07.2020 09:00:00 25,2 21,9 8 4 SW 1014,4 -
09.07.2020 08:00:00 24,2 21,9 2 1 W 1014,3 50
09.07.2020 07:00:00 23,8 21,7 18 10 SW 1014,0 -
09.07.2020 06:00:00 27,9 14,2 11 6 NW 1012,7 -
09.07.2020 05:00:00 28,1 14,3 18 10 NNW 1012,5 50
09.07.2020 04:00:00 28,1 15,2 18 10 NNW 1013,4 -
09.07.2020 03:00:00 26,6 17,9 11 6 N 1014,5 -
09.07.2020 02:00:00 25,3 19,7 4 2 N 1015,5 -
09.07.2020 01:00:00 25,6 20,4 8 4 SSW 1015,1 -
09.07.2020 00:00:00 26,1 19,7 4 2 W 1014,8 -
08.07.2020 23:00:00 28,2 16,8 29 16 ENE 1013,3 -
08.07.2020 22:00:00 29,0 17,0 35 19 ENE 1012,1 -
08.07.2020 21:00:00 30,2 16,6 42 23 ENE 1011,5 -
08.07.2020 20:00:00 32,6 13,3 39 21 ENE 1010,8 45
08.07.2020 19:00:00 33,0 15,2 48 26 E 1011,1 -
08.07.2020 18:00:00 34,7 13,7 42 23 E 1011,8 -
08.07.2020 17:00:00 35,9 12,2 39 21 ENE 1012,5 45
08.07.2020 16:00:00 37,0 12,8 34 18 ENE 1012,9 -
08.07.2020 15:00:00 37,1 13,2 34 18 E 1013,2 -
08.07.2020 14:00:00 36,5 12,7 34 18 ENE 1013,8 45
08.07.2020 13:00:00 36,4 10,7 29 16 E 1014,2 -
08.07.2020 12:00:00 35,8 11,9 26 14 ENE 1014,2 -
08.07.2020 11:00:00 35,0 10,9 24 13 E 1014,1 45
08.07.2020 10:00:00 31,8 12,6 9 5 NE 1014,3 -
08.07.2020 09:00:00 28,4 13,1 5 3 N 1014,2 -
08.07.2020 08:00:00 26,7 11,7 16 9 NNW 1014,3 45
08.07.2020 07:00:00 25,6 12,6 15 8 N 1014,0 -
08.07.2020 06:00:00 24,1 15,0 8 4 NNE 1013,7 -
08.07.2020 05:00:00 25,2 15,5 8 4 NE 1014,3 50
08.07.2020 04:00:00 24,8 16,5 8 4 N 1014,1 -
08.07.2020 03:00:00 24,5 18,2 5 3 NE 1014,6 -
08.07.2020 02:00:00 24,4 18,3 5 3 NNE 1014,8 -
08.07.2020 01:00:00 24,1 22,7 5 3 E 1014,8 -
08.07.2020 00:00:00 24,5 22,9 5 3 SE 1014,6 -
07.07.2020 23:00:00 24,6 22,7 4 2 SE 1014,4 -
07.07.2020 22:00:00 24,6 22,8 0 0 N 1013,9 -
07.07.2020 21:00:00 24,6 23,2 4 2 SW 1013,6 -
07.07.2020 20:00:00 25,0 23,6 8 4 SW 1013,5 5
07.07.2020 19:00:00 27,0 23,5 9 5 SSW 1013,4 -
07.07.2020 18:00:00 27,9 23,5 11 6 S 1013,7 -
07.07.2020 17:00:00 28,1 23,5 11 6 S 1014,4 45
07.07.2020 16:00:00 28,3 23,2 13 7 S 1014,6 -
07.07.2020 15:00:00 28,5 22,3 13 7 SSW 1014,8 -
07.07.2020 14:00:00 28,5 20,8 13 7 SSW 1015,4 50
07.07.2020 13:00:00 27,9 20,1 13 7 S 1015,7 -
07.07.2020 12:00:00 27,8 18,5 11 6 SSW 1015,4 -
07.07.2020 11:00:00 28,2 16,1 11 6 S 1015,1 45
07.07.2020 10:00:00 29,0 14,0 4 2 W 1015,3 -
07.07.2020 09:00:00 26,2 14,6 8 4 NW 1015,3 -
07.07.2020 08:00:00 23,6 14,4 2 1 WNW 1015,0 45
07.07.2020 07:00:00 22,2 11,3 8 4 NE 1014,8 -

tt = temperature
td = dewpoint
ff = wind speed
dd = wind direction
ppp = reduced air pressure
vv = visibility

Next stations